{"data":{"norad_id":68027,"intl_designator":"2026-040N","name":"STARLINK-36940","alt_names":[],"object_type":"PAYLOAD","status":"ACTIVE","operator":null,"country":"US","launch_date":"2026-03-01","launch_site_code":"AFWTR","launch_vehicle":null,"mission":null,"orbit_class":"UNKNOWN","rcs_meters":null,"size_class":null,"mass_kg":null,"dimensions":null,"purposes":["comms"],"wikipedia_slug":null,"has_3d_model":false,"image_url":null,"decayed_at":null,"tle_current":{"epoch":"2026-09-19T14:18:07.093152Z","epoch_age_seconds":137762,"freshness":"FRESH","line1":"1 68027U 26040N   26262.59591543  .00016261  00000+0  50472-3 0  9990","line2":"2 68027  97.2854 210.0178 0001002  90.5260 269.6098 15.33458320 31181","mean_motion":15.3345832,"eccentricity":0.0001002,"inclination_deg":97.2854,"raan_deg":210.0178,"arg_perigee_deg":90.526,"mean_anomaly_deg":269.6098,"bstar":0.00050472,"rev_number":3118,"period_min":93.905388964207,"perigee_km":464.81781103393,"apogee_km":466.18927659891,"semimajor_km":6843.6405438164,"source":"CELESTRAK","updated_at":"2026-09-20T09:00:43.743960Z"}}}